Hourly Data Report for March 19, 2012

All times are specified in Local Standard Time (LST). Add 1 hour to adjust for Daylight Saving Time where and when it is observed.

MIRAMICHI RCS
NEW BRUNSWICK

47°00'34.000" N
65°27'54.000" W
33.00 m
8100989
71744
ACQ

Download Data

Hourly Data (March 2012)
Hourly Data Report for March 19, 2012
TIME Temp Definition
°C
Dew Point Definition
°C
Rel Hum Definition
%
Wind Dir Definition
10's deg

Wind Spd Definition
km/h
Visibility Definition
km
Stn Press Definition
kPa
Hmdx Definition


Wind Chill Definition


Weather Definition


00:00 10.5 5.8 73 28 4   100.99     LegendNANA
01:00 5.3 2.6 83   0   101.09     LegendNANA
02:00 5.6 2.4 80 30 6   101.16     LegendNANA
03:00 7.9 1.9 66 28 6   101.24     LegendNANA
04:00 8.8 2.0 62 33 7   101.33     LegendNANA
05:00 6.3 0.8 68 6 15   101.54     LegendNANA
06:00 2.1 -2.6 71 7 22   101.76     LegendNANA
07:00 1.1 -3.1 74 9 13   101.97     LegendNANA
08:00 1.8 -3.1 70 8 15   102.09     LegendNANA
09:00 2.4 -3.8 64 8 22   102.18     LegendNANA
10:00 2.7 -4.1 61 9 17   102.25     LegendNANA
11:00 3.3 -4.3 57 9 13   102.31     LegendNANA
12:00 3.0 -4.5 58 7 17   102.35     LegendNANA
13:00 3.6 -5.0 53 7 17   102.35     LegendNANA
14:00 4.0 -5.6 50 7 19   102.34     LegendNANA
15:00 3.9 -5.7 50 6 17   102.37     LegendNANA
16:00 3.9 -4.6 54 7 15   102.35     LegendNANA
17:00 3.5 -4.5 56 12 13   102.32     LegendNANA
18:00 2.6 -5.2 56 11 13   102.31     LegendNANA
19:00 1.0 -5.3 63 11 11   102.30     LegendNANA
20:00 0.0 -5.2 68 11 9   102.32   -3 LegendNANA
21:00 -0.8 -5.7 69 8 2   102.30   -1 LegendNANA
22:00 -1.1 -5.2 74 20 2   102.21   -2 LegendNANA
23:00 -0.1 -4.4 73 25 4   102.20   -1 LegendNANA

Notes on Data Quality.

Legend

  • E = Estimated
  • M = Missing
  • NA = Not Available
Date modified: